Dewpoint
18 19 17 16 16 14 16 17 16 17 20 51 56 57 59 60 62 62 63 65 66 67 70 70 64 65 66 65 67 68 73 71 74 74 75 74 75 74 75 75 73 73 72 72
24 16 17 14 13 14 14 15 17 21 26 50 54 55 58 59 60 61 62 63 65 66 68 68 71 69 68 69 69 69 70 71 73 75 75 76 75 75 76 75 75 75 73 70
24 19 17 16 15 15 16 16 15 19 36 47 50 55 57 59 59 60 61 62 64 65 66 68 69 70 70 71 71 71 71 71 73 75 75 76 76 76 76 77 77 75 74 72
21 22 19 20 21 26 24 17 21 28 36 52 54 55 58 59 59 59 60 61 63 64 65 66 67 68 69 71 72 71 72 72 73 73 73 75 77 78 79 78 78 76 75 75
16 15 17 16 30 32 28 27 39 36 44 49 54 55 57 59 59 59 61 62 63 64 65 66 67 67 69 71 72 71 71 73 73 74 74 75 76 78 78 78 79 77 75 76
18 15 12 34 40 40 39 27 52 53 50 49 56 50 58 60 59 59 60 61 62 63 64 65 66 67 68 71 73 71 70 72 74 74 75 75 77 79 79 78 78 74 75 77
14 14 14 38 40 41 27 37 52 53 53 55 55 57 60 59 59 59 59 60 62 64 64 65 66 68 68 69 70 71 73 74 74 76 76 77 79 79 79 79 79 79 77 79
18 17 16 42 36 36 47 50 51 52 53 55 57 59 58 57 58 58 59 59 61 62 64 65 66 67 67 68 69 71 73 73 73 75 74 74 77 79 79 80 79 78 79 75
31 34 45 43 46 48 47 48 50 52 53 54 57 57 57 57 56 57 58 59 59 61 64 65 66 66 67 67 68 69 73 73 74 75 75 76 76 75 78 79 77 75 70 74
28 28 32 36 44 46 47 49 51 52 53 56 57 57 57 55 55 56 57 58 58 60 62 63 65 65 65 65 68 70 70 70 71 72 73 74 72 75 74 74 73 73 74 73
34 35 35 39 40 42 45 49 50 53 53 55 57 56 53 53 54 55 57 58 58 59 60 62 64 64 65 66 67 68 69 69 69 68 69 71 71 68 70 70 68 70 70 70
28 36 38 42 45 45 45 48 50 53 53 55 56 52 52 52 53 54 55 57 58 58 58 60 61 62 64 64 65 67 67 66 64 66 66 67 67 68 56 54 51 50 52 61
34 37 38 40 43 43 45 48 50 53 55 56 55 54 53 53 52 52 54 55 57 55 57 59 60 61 62 64 64 66 66 66 66 66 61 64 64 62 62 59 50 47 47 49
37 39 38 40 40 42 46 48 51 54 54 54 54 54 53 50 51 53 53 53 54 55 56 57 58 59 61 62 63 64 65 57 66 68 68 67 63 63 65 68 66 66 51 50
38 37 36 39 42 44 46 47 51 53 53 52 54 53 50 50 50 52 54 53 53 54 55 56 57 59 60 61 61 63 62 62 64 66 67 66 69 69 69 69 67 67 61 52
39 38 36 36 37 39 42 46 47 51 52 52 52 53 53 52 51 51 53 55 54 52 54 56 57 59 60 60 60 59 62 59 60 63 64 64 65 66 68 68 66 66 62 60
38 38 38 39 39 39 41 45 46 50 52 50 52 49 48 48 50 50 50 55 55 52 53 54 55 58 58 58 57 57 57 59 59 62 61 62 61 61 62 64 63 63 62 58
41 42 42 44 42 40 44 45 46 49 52 51 51 50 47 49 50 50 49 50 50 52 49 51 54 57 56 56 55 54 54 55 55 57 57 57 58 57 57 57 56 57 58 57
41 43 43 44 44 45 45 48 48 50 53 50 46 45 47 49 49 49 48 48 48 48 49 51 54 56 54 53 53 51 50 50 50 50 52 53 53 52 52 53 52 52 52 52
41 42 43 43 45 45 46 48 47 50 49 47 45 44 46 48 49 49 48 46 46 43 48 49 51 53 53 52 51 48 48 47 46 46 46 47 48 49 49 47 49 48 49 49
42 43 44 45 45 45 47 47 46 46 45 44 46 47 47 48 49 48 46 40 44 46 44 48 46 46 50 50 48 47 46 46 45 44 43 43 42 43 44 45 45 44 45 46
42 44 45 46 46 46 46 45 44 44 43 43 45 45 46 47 47 46 46 42 39 44 39 37 38 46 44 51 44 43 44 43 44 44 43 41 40 42 40 41 41 41 43 43
44 45 44 44 45 46 45 44 43 41 43 45 44 43 41 40 42 41 40 43 39 42 37 36 43 48 49 40 42 43 38 40 40 43 43 42 41 41 41 39 38 39 39 40
44 44 44 44 45 44 44 44 44 45 45 45 45 43 42 37 39 39 38 42 43 39 37 39 41 46 46 37 35 36 40 39 36 37 37 40 42 44 43 39 40 42 40 39
45 45 44 43 42 41 44 46 43 43 43 43 44 42 43 39 41 40 39 38 42 42 39 42 43 46 36 36 36 35 34 34 36 35 36 37 36 37 43 42 41 40 41 43
47 45 45 44 42 41 41 42 41 41 43 39 38 37 36 37 36 37 37 40 37 40 35 33 34 35 35 34 34 35 37 36 35 33 34 36 37 38 39 42 40 40 43 38
40 41 42 43 47 45 43 45 41 42 41 39 38 38 36 35 35 37 37 35 35 35 35 35 32 33 30 34 35 35 34 35 36 36 37 37 37 37 36 35 37 36 35 36
Lifted_Index
1 1 1 0 0 1 2 1 1 0 -1 -4 -5 -5 -4 -4 -5 -5 -6 -6 -6 -7 -7 -7 -6 -6 -6 -5 -5 -5 -6 -6 -6 -6 -6 -6 -6 -6 -6 -6 -5 -5 -4 -4
1 1 1 1 1 1 1 1 1 1 -1 -3 -5 -4 -4 -3 -4 -5 -5 -5 -5 -6 -7 -7 -6 -6 -6 -6 -6 -5 -6 -6 -6 -6 -6 -6 -6 -6 -6 -6 -6 -5 -4 -4
1 1 0 1 0 0 0 0 1 0 -1 -3 -4 -4 -3 -3 -3 -4 -4 -4 -4 -5 -6 -6 -6 -7 -7 -6 -6 -6 -6 -6 -6 -6 -6 -6 -6 -6 -6 -6 -6 -6 -5 -4
1 1 0 -0 -1 -1 -1 -1 -1 -1 -2 -2 -3 -4 -3 -3 -3 -3 -4 -4 -4 -4 -5 -5 -5 -6 -6 -6 -7 -6 -6 -7 -7 -7 -7 -7 -7 -7 -7 -7 -7 -6 -5 -5
2 1 -0 -1 -2 -2 -1 -1 -2 -3 -2 -3 -3 -4 -4 -3 -3 -3 -3 -3 -4 -4 -4 -4 -4 -4 -5 -6 -7 -7 -7 -7 -7 -7 -7 -7 -7 -7 -7 -7 -7 -7 -6 -6
2 1 -0 -2 -2 -2 -1 -2 -3 -3 -3 -3 -4 -5 -4 -3 -3 -3 -3 -3 -4 -4 -4 -4 -4 -4 -5 -6 -7 -7 -7 -7 -8 -8 -8 -8 -8 -8 -8 -8 -8 -7 -7 -6
2 1 -0 -2 -2 -2 -2 -2 -2 -3 -3 -3 -4 -5 -5 -4 -3 -3 -3 -3 -4 -4 -5 -4 -4 -5 -5 -6 -6 -6 -7 -7 -8 -8 -8 -8 -9 -9 -8 -8 -8 -7 -7 -7
1 0 -1 -2 -2 -2 -2 -2 -2 -2 -3 -3 -4 -5 -5 -4 -3 -3 -3 -3 -3 -4 -4 -4 -4 -4 -5 -5 -5 -6 -7 -7 -7 -8 -8 -8 -9 -9 -9 -8 -8 -8 -7 -7
0 -1 -1 -1 -2 -2 -2 -2 -2 -2 -3 -3 -4 -4 -4 -4 -3 -3 -3 -3 -3 -3 -4 -4 -4 -4 -4 -4 -5 -6 -6 -6 -7 -7 -8 -8 -8 -8 -8 -8 -8 -7 -7 -6
0 -0 -0 -1 -1 -1 -1 -1 -2 -2 -3 -3 -4 -4 -4 -4 -3 -3 -3 -3 -3 -3 -3 -4 -4 -4 -4 -4 -4 -5 -6 -6 -6 -6 -6 -7 -7 -7 -6 -6 -6 -6 -6 -6
1 0 0 -0 -0 -0 -1 -1 -2 -2 -3 -3 -3 -3 -3 -3 -2 -2 -2 -2 -2 -2 -2 -3 -3 -4 -4 -4 -4 -4 -5 -5 -4 -4 -5 -5 -5 -5 -4 -4 -4 -5 -5 -5
0 0 0 -0 -0 -0 -0 -1 -2 -3 -3 -3 -2 -2 -2 -1 -1 -1 -1 -1 -2 -2 -1 -1 -2 -2 -3 -3 -3 -4 -4 -4 -4 -4 -4 -4 -3 -3 -2 -2 -2 -3 -3 -3
1 1 0 0 0 0 -0 -1 -2 -3 -3 -2 -2 -1 -1 -0 0 1 0 -0 -0 -1 -0 -0 -0 -1 -1 -2 -3 -3 -4 -4 -4 -4 -3 -3 -3 -2 -2 -1 -1 -1 -1 -2
1 1 1 1 0 0 -0 -1 -2 -2 -2 -1 -1 -0 0 1 1 2 1 1 1 1 1 1 1 0 -0 -1 -2 -3 -3 -3 -4 -4 -4 -4 -3 -2 -2 -2 -1 0 0 0
1 2 2 1 1 1 0 -0 -1 -2 -1 -1 0 1 1 2 2 2 2 2 2 2 2 2 2 1 0 -1 -2 -2 -3 -3 -4 -4 -4 -4 -4 -3 -3 -3 -1 0 1 1
2 2 2 2 2 2 1 -0 -1 -1 -1 -1 0 1 1 2 3 3 3 3 3 3 3 3 3 2 1 -0 -1 -2 -3 -3 -3 -3 -3 -4 -4 -4 -3 -3 -1 0 1 1
3 3 3 3 3 2 1 0 -1 -1 -1 -1 -0 0 1 2 2 2 3 3 4 4 5 4 4 3 2 0 -1 -2 -2 -3 -3 -3 -3 -3 -3 -3 -3 -3 -2 -1 -1 -0
3 4 4 3 3 2 2 1 0 -1 -1 -1 -0 1 1 1 1 2 3 4 4 5 5 6 5 3 2 0 -1 -2 -2 -3 -3 -3 -2 -2 -2 -2 -3 -3 -3 -2 -2 -1
4 4 4 4 3 3 2 1 1 -0 -0 -0 0 1 1 1 1 2 3 4 5 5 6 5 4 3 2 1 -1 -2 -2 -3 -3 -2 -2 -1 -1 -1 -1 -2 -2 -1 -1 -1
5 4 4 4 4 3 2 1 1 1 1 1 1 1 1 1 1 2 3 5 5 6 5 5 4 3 3 2 0 -1 -2 -2 -2 -2 -1 -1 -1 -0 -0 -0 0 0 0 0
5 5 4 4 4 4 3 2 2 2 2 2 2 2 2 1 2 2 4 5 6 6 6 6 5 5 4 3 2 1 -0 -1 -1 -1 -1 -0 -0 0 0 0 0 1 1 1
5 5 5 5 4 4 4 4 4 4 4 3 3 3 3 3 3 3 4 6 7 7 8 8 8 7 6 6 5 3 2 1 1 0 0 1 1 1 1 0 0 0 1 1
5 6 6 5 5 5 5 5 5 5 5 5 5 5 4 4 4 5 6 7 7 8 9 9 9 9 8 8 7 7 5 4 3 3 3 3 3 2 2 2 2 2 2 3
5 5 6 6 5 5 5 6 6 6 6 6 6 6 5 5 5 6 6 7 7 8 8 9 9 9 9 9 9 9 9 8 7 7 7 6 6 5 5 5 5 5 6 6
4 4 5 5 5 5 5 6 6 6 6 6 6 6 6 6 6 6 6 7 7 7 8 8 8 9 9 9 10 10 11 11 11 11 10 10 10 10 10 10 9 10 10 10
3 3 4 4 4 4 5 5 5 5 5 6 6 6 6 6 6 6 6 6 6 7 7 8 8 8 9 9 9 10 11 11 12 12 12 12 13 13 13 13 13 14 14 14
3 3 3 3 3 3 4 4 4 4 5 5 6 6 6 6 6 6 6 6 6 7 7 7 8 9 9 9 9 10 10 11 11 11 12 12 13 13 14 15 15 16 16 16